Location: Namasale
(1.5000°N, 32.6167°E)
Time: 13:32:42
(UTC+00:00)

NATO 3D Rocket - Pass Details

Date: 09 April 2020
Orbit: 670 x 2296 km, 21.5° (Epoch: 04 June)

Event Time Altitude Azimuth Distance (km) Brightness Sun altitude
Rises 16:35:42 0° 285° (WNW) 3,040 8.7 -10.9°
Reaches altitude 10° 16:37:54 10° 281° (WNW) 2,193 7.5 -11.4°
Maximum altitude 16:42:52 61° 201° (SSW) 942 4.0 -12.6°
Enters shadow 16:48:15 15° 124° (SE) 2,435 5.5 -14.0°
